Showing default

FLOCK 4G 30, 62679

Orbit data source: Space-Track

FLOCK 4G 30, 62679 is a payload satellite owned by Planet (US) in SSO that was launched on Tue, 14 Jan 2025 UTC via an FALCON 9 launch vehicle from the Air Force Western Test Range (AFWTR). Payload-class satellites include a variety of spacecraft equipped with specific instruments for various scientific and technological missions. These include communications satellites like Starlink; space stations such as the ISS; scientific satellites like the Hubble; Earth observation satellites from companies like Planet Labs, Umbra, and HawkEye 360; GPS; miniature CubeSats for education and research; and military/defense satellites.

Loading next visibility...
Identifier
62679, 2025-009BY
Orbit
SSO
Country
Flag of USUS
Related business
Manufacturer
Planet
Mission
Operational Commercial Imaging
Bus & Motor
CUBESAT 3U, Unknown motor
Mass
5.7 kg wet, 5.7 kg dry
Launch date (UTC)
2025-01-14 (10 months ago)
Launch vehicle
FALCON 9
Launch site
Air Force Western Test Range (AFWTR)
Object type
Payload
Rocket body
Debris
Shape & HBR
Box + 2 Pan, 1.0 m
Radar Cross Section
0.072 m², Medium (>0.1 m² and < 1m²)

Expand to show TLE details & history
Last TLE update: 11 hours ago

TLE from 11 hours ago
0 FLOCK 4G 30
1 62679U 25009BY  25308.94408112  .00009725  00000-0  40844-3 0  9999
2 62679  97.4156  27.0796 0005844  62.4623 297.7208 15.23636068102322
Epoch: 2025-11-04T22:39Z
TLE epoch observation values (Epoch: 2025-11-04T22:39:28.608Z)
Latitude
0.00003°
Longitude
2.78655°
Altitude
496.112 km
Speed
7.618 km/s
True Right ascension
01h 48m 19s
True Declination
0° 00' 00"
Sunlit
Object was in full shadow at epoch
Visualization orbit readout
Latitude
Unknown
Longitude
Unknown
Altitude
Unknown
Speed
Unknown
Apparent Right ascension
Unknown
Apparent Declination
Unknown
Sunlit
N/A
Visualization observer readout
Local Sidereal Time
05:51:02
Azimuth
Unknown
Elevation
Unknown
Doppler factor
Unknown
Orbital elements
Apogee altitude
495.86 km
Perigee altitude
487.831 km
Semi-major axis
6,869.983 km
Eccentricity
0.00058
Inclination
97.4156°
RAAN
27.0796°
Arg. of periapsis
62.4623°
True anomaly
297.6615°
Mean anomaly
297.7208°
Eccentric anomaly
297.69115°
Mean motion
3.81162 °/min
Orbital period
94.45 mins
BSTAR
0.00040844
Loading maneuver chart data...
Computing Atmospheric mass density...
Loading historical data...
Loading historical data...
Loading historical data...
Loading historical data...
Loading historical data...
Loading historical data...
Loading historical data...

Documentation

Showing up to 5 results
|